Location: Cambroso
(45.2833°N, 12.0850°E)
Time: 12:37:14
(UTC+00:00)

Cosmos 1939 Rocket - Pass Details

Date: 21 January 2021
Orbit: 531 x 584 km, 97.4° (Epoch: 06 March)

Event Time Altitude Azimuth Distance (km) Brightness Sun altitude
Rises 17:36:34 0° 183° (S) 2,792 6.6 -16.2°
Reaches altitude 10° 17:38:49 10° 191° (S) 1,895 5.8 -16.6°
Maximum altitude 17:42:43 41° 262° (W) 848 4.3 -17.2°
Drops below altitude 10° 17:46:36 10° 333° (NNW) 1,890 5.7 -17.9°
Sets 17:48:51 0° 341° (NNW) 2,785 6.5 -18.3°
